FW6919 Weather Reports


time (UTC)temp
F
wind
direction
speed
knots
gust
knots
rain 1hr
in
rain 24hr
in
rain mn
in
humidity
%
barometer
mb
20260509174013 86 352 3.5 7.8 0.00 0.00 0.00 55 1011.5
20260509173514 85 30 3.5 9.6 0.00 0.00 0.00 56 1011.4
20260509173013 84 330 2.6 9.6 0.00 0.00 0.00 55 1011.5
20260509172513 84 303 7.8 9.6 0.00 0.00 0.00 55 1011.5
20260509172014 84 323 5.2 9.6 0.00 0.00 0.00 56 1011.5
20260509171512 84 290 6.1 9.6 0.00 0.00 0.00 55 1011.6
20260509171011 84 336 5.2 9.6 0.00 0.00 0.00 55 1011.7
20260509170511 84 321 7.0 11.3 0.00 0.00 0.00 55 1011.6
20260509170011 84 352 3.5 11.3 0.00 0.00 0.00 55 1011.7
20260509165513 83 304 4.3 11.3 0.00 0.00 0.00 55 1011.7
20260509165012 83 309 6.1 10.4 0.00 0.00 0.00 56 1011.8
20260509164513 83 19 7.0 12.2 0.00 0.00 0.00 56 1011.8
20260509164013 83 339 2.6 12.2 0.00 0.00 0.00 56 1011.8
20260509163511 83 314 7.0 12.2 0.00 0.00 0.00 55 1011.9
20260509163010 83 322 10.4 12.2 0.00 0.00 0.00 56 1011.9
20260509162512 83 323 4.3 10.4 0.00 0.00 0.00 58 1011.8
20260509162010 82 303 6.1 10.4 0.00 0.00 0.00 57 1011.8
20260509161513 82 24 7.8 10.4 0.00 0.00 0.00 58 1011.8
20260509161011 82 40 4.3 11.3 0.00 0.00 0.00 57 1011.8
20260509160515 82 325 7.8 11.3 0.00 0.00 0.00 58 1011.8
20260509160013 82 335 4.3 9.6 0.00 0.00 0.00 59 1011.8
20260509155511 81 5 4.3 12.2 0.00 0.00 0.00 60 1011.7
20260509155013 81 15 7.8 13.0 0.00 0.00 0.00 61 1011.6
20260509154513 81 329 9.6 13.0 0.00 0.00 0.00 61 1011.6
20260509154021 80 52 4.3 11.3 0.00 0.00 0.00 61 1011.6
20260509153520 80 308 4.3 13.0 0.00 0.00 0.00 61 1011.6
20260509153020 79 351 5.2 13.0 0.00 0.00 0.00 61 1011.6
20260509152518 79 302 10.4 12.2 0.00 0.00 0.00 61 1011.6
20260509152019 79 333 7.8 12.2 0.00 0.00 0.00 63 1011.6
20260509151518 79 303 4.3 11.3 0.00 0.00 0.00 63 1011.7
20260509151021 78 323 7.8 10.4 0.00 0.00 0.00 65 1011.8
20260509150519 78 313 5.2 11.3 0.00 0.00 0.00 66 1011.8
20260509150019 78 316 4.3 12.2 0.00 0.00 0.00 66 1011.9
20260509145518 78 294 4.3 12.2 0.00 0.00 0.00 68 1011.9
20260509145020 77 327 10.4 12.2 0.00 0.00 0.00 69 1011.8
20260509144519 77 279 10.4 12.2 0.00 0.00 0.00 70 1011.9
20260509144021 77 327 7.8 9.6 0.00 0.00 0.00 71 1011.8
20260509143518 77 309 8.7 10.4 0.00 0.00 0.00 72 1011.8
20260509143018 76 348 4.3 10.4 0.00 0.00 0.00 72 1011.9
20260509142518 76 312 7.0 10.4 0.00 0.00 0.00 73 1011.8
20260509142018 76 5 7.0 9.6 0.00 0.00 0.00 74 1011.8
20260509141517 76 300 7.8 9.6 0.00 0.00 0.00 75 1011.7
20260509141017 75 360 3.5 9.6 0.00 0.00 0.00 75 1011.8
20260509140516 75 335 3.5 9.6 0.00 0.00 0.00 76 1011.8
20260509140017 75 328 3.5 9.6 0.00 0.00 0.00 77 1011.9
20260509135516 74 331 7.8 10.4 0.00 0.00 0.00 79 1011.9
20260509135016 74 333 7.0 10.4 0.00 0.00 0.00 80 1011.8
20260509134516 73 323 7.0 10.4 0.00 0.00 0.00 81 1011.8
20260509134016 73 346 4.3 8.7 0.00 0.00 0.00 82 1011.7
20260509133516 72 325 4.3 11.3 0.00 0.00 0.00 84 1011.8
20260509133016 72 324 3.5 11.3 0.00 0.00 0.00 84 1011.8
20260509132516 72 323 7.8 11.3 0.00 0.00 0.00 85 1011.6
20260509132015 71 309 3.5 11.3 0.00 0.00 0.00 85 1011.7
20260509131515 71 310 6.1 11.3 0.00 0.00 0.00 86 1011.6
20260509131015 71 324 7.0 8.7 0.00 0.00 0.00 87 1011.6
20260509130514 70 312 5.2 7.8 0.00 0.00 0.00 88 1011.7
20260509130014 70 340 2.6 7.8 0.00 0.00 0.00 89 1011.8
20260509125515 70 319 3.5 7.8 0.00 0.00 0.00 89 1011.6
20260509125016 69 69 3.5 8.7 0.00 0.00 0.00 89 1011.8
20260509124513 69 293 3.5 8.7 0.00 0.00 0.00 89 1011.6
20260509124015 69 328 5.2 7.8 0.00 0.00 0.00 89 1011.7
20260509123514 69 324 3.5 7.0 0.00 0.00 0.00 89 1011.7
20260509123014 69 360 1.7 4.3 0.00 0.00 0.00 89 1011.6
20260509122515 69 331 4.3 4.3 0.00 0.00 0.00 89 1011.6
20260509122013 69 303 1.7 6.1 0.00 0.00 0.00 89 1011.7
20260509121514 69 288 2.6 6.1 0.00 0.00 0.00 89 1011.5
20260509121013 69 294 2.6 7.0 0.00 0.00 0.00 89 1011.4
20260509120514 69 288 3.5 7.0 0.00 0.00 0.00 88 1011.4
20260509120013 68 281 3.5 7.8 0.00 0.00 0.00 88 1011.3
20260509115513 69 296 3.5 7.8 0.00 0.00 0.00 88 1011.4
20260509115014 69 321 3.5 7.0 0.00 0.00 0.00 87 1011.3
20260509114513 69 346 2.6 7.0 0.00 0.00 0.00 87 1011.2
20260509114015 69 325 1.7 7.0 0.00 0.00 0.00 86 1011.2
20260509113515 69 317 1.7 7.8 0.00 0.00 0.00 86 1011.1
20260509113014 69 299 6.1 10.4 0.00 0.00 0.00 85 1010.9
20260509112513 69 300 4.3 10.4 0.00 0.00 0.00 85 1010.9
20260509112011 70 312 9.6 10.4 0.00 0.00 0.00 83 1010.5
20260509111510 70 292 7.8 8.7 0.00 0.00 0.00 82 1010.6
20260509111013 70 288 3.5 7.0 0.00 0.00 0.00 82 1010.6
20260509110512 70 304 3.5 7.0 0.00 0.00 0.00 82 1010.2
20260509110011 70 297 1.7 7.0 0.00 0.00 0.00 82 1010.2
20260509105511 70 295 3.5 7.0 0.00 0.00 0.00 82 1010.0
20260509105012 70 290 3.5 7.0 0.00 0.00 0.00 81 1010.0
20260509104512 70 277 1.7 6.1 0.00 0.00 0.00 81 1010.2
20260509104012 70 254 1.7 6.1 0.00 0.00 0.00 81 1010.0
20260509103511 70 288 0.9 7.0 0.00 0.00 0.00 80 1010.0
20260509103011 70 0 0.0 7.0 0.00 0.00 0.00 80 1010.0
20260509102512 71 255 4.3 7.0 0.00 0.00 0.00 79 1010.0
20260509102015 71 280 2.6 3.5 0.00 0.00 0.00 79 1009.9
20260509101514 71 281 1.7 6.1 0.00 0.00 0.00 78 1009.9
20260509101015 71 288 2.6 6.1 0.00 0.00 0.00 78 1010.0
20260509100512 72 300 4.3 6.1 0.00 0.00 0.00 77 1010.0
20260509100013 72 287 2.6 7.8 0.00 0.00 0.00 76 1009.8
20260509095514 72 295 2.6 7.8 0.00 0.00 0.00 76 1009.8
20260509095012 72 323 3.5 7.8 0.00 0.00 0.00 75 1009.6
20260509094513 72 304 7.0 7.8 0.00 0.00 0.00 75 1009.3
20260509094012 72 331 5.2 7.8 0.00 0.00 0.00 76 1009.4
20260509093512 71 313 7.0 4.3 0.00 0.00 0.00 79 1009.1
20260509093014 71 323 0.9 3.5 0.00 0.00 0.00 81 1009.0
20260509092512 71 0 0.0 2.6 0.00 0.00 0.00 82 1009.1
20260509092013 72 0 0.0 8.7 0.00 0.00 0.00 82 1009.1
20260509091510 72 0 0.0 10.4 0.00 0.00 0.00 82 1009.0
20260509091013 72 340 0.9 10.4 0.00 0.00 0.00 83 1009.1
20260509090513 71 31 3.5 12.2 0.00 0.00 0.00 85 1008.8
20260509090013 71 0 0.0 12.2 0.00 0.00 0.00 86 1008.4
20260509085510 71 338 5.2 12.2 0.00 0.00 0.00 87 1008.5
20260509085011 71 235 2.6 13.0 0.00 0.00 0.00 88 1007.8
20260509084516 71 220 7.8 13.0 0.00 0.00 0.00 88 1007.9
20260509084018 71 157 7.8 13.9 0.00 0.00 0.00 88 1007.8
20260509083515 71 177 6.1 13.9 0.00 0.00 0.00 88 1007.4
20260509083017 70 192 6.1 13.0 0.00 0.00 0.00 88 1007.5
20260509082514 70 195 5.2 13.0 0.00 0.00 0.00 87 1007.7
20260509082016 70 221 4.3 10.4 0.00 0.00 0.00 87 1007.3
20260509081515 70 192 6.1 6.1 0.00 0.00 0.00 88 1007.3
20260509081015 70 177 2.6 11.3 0.00 0.00 0.00 89 1007.5
20260509080514 70 200 0.9 11.3 0.00 0.00 0.00 89 1008.1
20260509080015 70 178 4.3 8.7 0.00 0.00 0.00 89 1008.6
20260509075513 70 206 5.2 9.6 0.00 0.00 0.00 89 1009.0
20260509075016 70 223 4.3 9.6 0.00 0.00 0.00 88 1009.5
20260509074514 70 212 7.8 8.7 0.00 0.00 0.00 89 1009.8
20260509074014 70 209 5.2 9.6 0.00 0.00 0.00 89 1010.0
20260509073516 70 206 6.1 12.2 0.00 0.00 0.00 89 1010.4
20260509073014 70 217 6.1 12.2 0.00 0.00 0.00 89 1010.5
20260509072514 70 246 1.7 11.3 0.00 0.00 0.00 89 1010.9
20260509072013 70 265 3.5 11.3 0.00 0.00 0.00 88 1010.7
20260509071513 71 208 5.2 9.6 0.00 0.00 0.00 88 1011.0
20260509071013 71 218 5.2 9.6 0.00 0.00 0.00 88 1011.3
20260509070515 71 209 3.5 10.4 0.00 0.00 0.00 89 1011.6
20260509070013 71 229 7.8 10.4 0.00 0.00 0.00 89 1011.6
20260509065512 70 231 6.1 8.7 0.00 0.00 0.00 89 1011.8
20260509065014 70 225 2.6 7.0 0.00 0.00 0.00 90 1011.8
20260509064514 70 242 2.6 7.0 0.00 0.00 0.00 90 1012.1
20260509064014 70 286 0.9 7.0 0.00 0.00 0.00 90 1012.2
20260509063513 70 275 3.5 4.3 0.00 0.00 0.00 89 1012.1
20260509063012 70 253 3.5 4.3 0.00 0.00 0.00 89 1012.0
20260509062512 70 0 0.0 5.2 0.00 0.00 0.00 89 1012.1
20260509062013 70 261 2.6 5.2 0.00 0.00 0.00 89 1012.1
20260509061512 70 261 2.6 3.5 0.00 0.00 0.00 89 1012.1
20260509061014 70 230 1.7 3.5 0.00 0.00 0.00 89 1012.2
20260509060511 70 229 0.9 3.5 0.00 0.00 0.00 88 1012.0
20260509060015 70 0 0.0 5.2 0.00 0.00 0.00 88 1012.1
20260509055512 70 230 0.9 5.2 0.00 0.00 0.00 88 1012.0
20260509055010 70 259 3.5 5.2 0.00 0.00 0.00 87 1011.8
20260509054511 71 341 0.9 1.7 0.00 0.00 0.00 87 1012.2
20260509054013 71 0 0.0 1.7 0.00 0.00 0.00 86 1012.3
20260509053510 71 341 0.9 1.7 0.00 0.00 0.00 86 1012.1
20260509053010 71 0 0.0 2.6 0.00 0.00 0.00 86 1012.3
20260509052513 71 0 0.0 3.5 0.00 0.00 0.00 86 1012.3
20260509052013 71 341 1.7 3.5 0.00 0.00 0.00 86 1012.5
20260509051511 72 351 0.9 5.2 0.00 0.00 0.00 85 1012.5
20260509051013 72 351 2.6 6.1 0.00 0.00 0.00 86 1012.5
20260509050512 72 352 5.2 6.1 0.00 0.00 0.00 86 1012.6
20260509050015 72 323 3.5 3.5 0.00 0.00 0.01 85 1012.2
20260509045513 72 0 0.0 4.3 0.00 0.00 0.01 85 1011.6
20260509045012 72 0 0.0 5.2 0.00 0.00 0.01 85 1011.7
20260509044511 72 169 1.7 5.2 0.00 0.00 0.01 85 1011.6
20260509044015 72 171 3.5 5.2 0.00 0.00 0.01 85 1011.5
20260509043512 72 189 2.6 5.2 0.00 0.00 0.01 85 1011.3
20260509043011 72 182 1.7 8.7 0.00 0.00 0.01 85 1011.2
20260509042512 72 165 3.5 8.7 0.00 0.00 0.01 84 1011.2
20260509042012 72 184 3.5 7.0 0.00 0.00 0.01 84 1010.8
20260509041510 72 164 1.7 5.2 0.00 0.00 0.01 84 1010.9
20260509041013 72 164 4.3 5.2 0.00 0.00 0.01 84 1011.0
20260509040512 72 171 4.3 4.3 0.00 0.00 0.01 84 1011.1
20260509040014 72 176 1.7 5.2 0.00 0.00 0.01 83 1011.3
20260509035510 73 154 2.6 5.2 0.00 0.00 0.01 83 1011.2
20260509035011 73 123 3.5 5.2 0.00 0.00 0.01 83 1011.2
20260509034512 73 59 1.7 3.5 0.00 0.00 0.01 83 1011.4
20260509034013 73 57 2.6 4.3 0.00 0.00 0.01 83 1011.4
20260509033514 73 56 0.9 4.3 0.00 0.00 0.01 83 1011.6
20260509033014 73 60 1.7 5.2 0.00 0.00 0.01 83 1011.6
20260509032512 73 82 0.9 5.2 0.00 0.00 0.01 83 1011.4
20260509032028 73 84 2.6 4.3 0.00 0.00 0.01 83 1011.3
20260509031527 73 109 1.7 6.1 0.00 0.00 0.01 83 1011.0
20260509031028 73 0 0.0 7.0 0.00 0.00 0.01 83 1010.5
20260509030528 73 144 2.6 7.0 0.00 0.00 0.01 83 1010.0
20260509030029 73 151 4.3 7.0 0.00 0.00 0.01 83 1010.1
20260509025528 73 125 3.5 6.1 0.00 0.00 0.01 83 1010.1
20260509025027 73 145 2.6 7.0 0.00 0.00 0.01 83 1010.1
20260509024526 73 144 0.9 8.7 0.00 0.00 0.01 83 1010.1
20260509024027 73 149 5.2 8.7 0.00 0.00 0.01 83 1009.9
20260509023526 73 134 2.6 9.6 0.00 0.00 0.01 82 1009.6
20260509023028 73 126 6.1 9.6 0.00 0.00 0.01 82 1009.5
20260509022525 73 163 5.2 9.6 0.00 0.00 0.01 82 1009.4
20260509022026 73 193 7.0 9.6 0.00 0.00 0.01 82 1009.1
20260509021526 73 206 6.1 9.6 0.00 0.00 0.01 82 1009.2
20260509021025 73 163 5.2 8.7 0.00 0.00 0.01 82 1009.4
20260509020525 73 171 6.1 9.6 0.00 0.00 0.01 81 1009.1
20260509020025 73 197 5.2 9.6 0.00 0.00 0.01 81 1009.0
20260509015525 73 170 4.3 9.6 0.00 0.00 0.01 81 1009.1
20260509015025 73 157 5.2 7.8 0.00 0.00 0.01 81 1009.3
20260509014525 73 171 4.3 7.0 0.00 0.00 0.01 81 1009.4
20260509014025 73 183 2.6 7.0 0.00 0.00 0.01 81 1009.6
20260509013524 73 163 1.7 6.1 0.00 0.00 0.01 81 1009.7
20260509013024 73 142 1.7 6.1 0.00 0.00 0.01 81 1009.6
20260509012526 73 135 6.1 6.1 0.00 0.00 0.01 81 1009.6
20260509012024 73 142 2.6 5.2 0.00 0.00 0.01 80 1009.7
20260509011525 73 155 1.7 6.1 0.00 0.00 0.01 80 1009.8
20260509011026 73 144 2.6 6.1 0.00 0.00 0.01 80 1009.6
20260509010524 73 162 3.5 6.1 0.00 0.00 0.01 80 1009.5
20260509010023 73 152 2.6 7.8 0.00 0.00 0.01 80 1009.5
20260509005523 73 146 3.5 8.7 0.00 0.00 0.01 80 1009.2
20260509005023 73 188 3.5 9.6 0.00 0.00 0.01 80 1009.2
20260509004522 73 160 6.1 9.6 0.00 0.00 0.01 79 1008.9
20260509004023 73 175 2.6 7.8 0.00 0.00 0.01 79 1009.0
20260509003522 73 158 4.3 9.6 0.00 0.00 0.01 79 1009.0
20260509003025 73 194 3.5 12.2 0.00 0.00 0.01 79 1008.9
20260509002522 73 169 5.2 12.2 0.00 0.00 0.01 79 1008.8
20260509002023 73 161 7.0 10.4 0.00 0.00 0.01 79 1008.8
20260509001522 73 156 4.3 10.4 0.00 0.00 0.01 78 1008.7
20260509001023 73 157 5.2 10.4 0.00 0.00 0.01 78 1008.8
20260509000523 73 153 6.1 9.6 0.00 0.00 0.01 78 1008.8
20260509000024 73 161 5.2 7.8 0.00 0.00 0.01 78 1009.0
20260508235522 73 162 3.5 8.7 0.00 0.00 0.01 78 1009.1
20260508235022 73 175 2.6 8.7 0.00 0.00 0.01 78 1009.2
20260508234523 73 170 1.7 8.7 0.00 0.00 0.01 77 1009.3
20260508234022 73 155 2.6 9.6 0.00 0.00 0.01 77 1009.3
20260508233520 74 202 7.8 12.2 0.00 0.00 0.01 77 1009.4
20260508233021 74 219 6.1 12.2 0.00 0.00 0.01 76 1009.4
20260508232522 74 189 3.5 9.6 0.00 0.00 0.01 77 1009.3
20260508232020 74 197 5.2 9.6 0.00 0.00 0.01 76 1009.4
20260508231521 74 198 6.1 9.6 0.00 0.00 0.01 76 1009.6
20260508231020 74 153 3.5 8.7 0.00 0.00 0.01 76 1009.5
20260508230520 74 167 2.6 8.7 0.00 0.00 0.01 75 1009.6
20260508230019 74 150 2.6 8.7 0.00 0.00 0.01 75 1009.4
20260508225519 74 159 4.3 9.6 0.00 0.00 0.01 75 1009.4
20260508225018 74 159 4.3 10.4 0.00 0.00 0.01 75 1009.4
20260508224520 74 162 7.0 10.4 0.00 0.00 0.01 75 1009.5
20260508224018 75 178 7.0 11.3 0.00 0.00 0.01 74 1009.4
20260508223518 74 184 5.2 11.3 0.00 0.00 0.01 75 1009.4
20260508223018 75 194 5.2 11.3 0.00 0.00 0.01 74 1009.6
20260508222518 75 196 6.1 11.3 0.00 0.00 0.01 73 1009.6
20260508222017 75 136 7.0 11.3 0.00 0.00 0.01 73 1009.5
20260508221520 75 153 7.0 11.3 0.00 0.00 0.01 73 1009.5
20260508221017 75 200 7.8 11.3 0.00 0.00 0.01 73 1009.7
20260508220517 75 197 4.3 11.3 0.00 0.00 0.01 71 1009.7
20260508220019 75 192 4.3 12.2 0.00 0.00 0.01 70 1009.5
20260508215517 75 215 5.2 14.8 0.00 0.00 0.01 71 1009.5
20260508215016 75 170 4.3 14.8 0.00 0.00 0.01 71 1009.7
20260508214515 74 164 5.2 13.0 0.00 0.00 0.01 71 1009.7
20260508214016 75 182 4.3 13.9 0.00 0.00 0.01 70 1009.9
20260508213517 75 150 7.0 13.9 0.00 0.00 0.01 70 1009.8
20260508213015 75 184 6.1 12.2 0.00 0.00 0.01 70 1009.8
20260508212515 74 130 6.1 11.3 0.00 0.00 0.01 69 1009.9
20260508212017 74 208 5.2 12.2 0.00 0.00 0.01 70 1010.0
20260508211517 74 214 7.8 12.2 0.00 0.00 0.01 70 1010.0
20260508211015 74 130 3.5 11.3 0.00 0.00 0.01 70 1010.0
20260508210514 74 171 5.2 13.0 0.00 0.00 0.01 70 1010.2
20260508210014 74 173 5.2 13.0 0.00 0.00 0.01 71 1010.4
20260508205515 74 156 5.2 12.2 0.00 0.00 0.01 69 1010.5
20260508205013 74 140 8.7 12.2 0.00 0.00 0.01 69 1010.2
20260508204514 74 123 4.3 9.6 0.00 0.00 0.01 70 1010.1
20260508204014 74 129 7.0 9.6 0.00 0.00 0.01 71 1010.2
20260508203514 73 161 5.2 9.6 0.00 0.00 0.01 70 1010.2
20260508203014 73 164 4.3 10.4 0.00 0.00 0.01 71 1010.8
20260508202514 72 142 7.0 10.4 0.00 0.00 0.01 72 1011.3
20260508202013 72 18 6.1 8.7 0.00 0.00 0.01 73 1011.6
20260508201514 72 11 4.3 13.0 0.00 0.00 0.01 72 1011.8
20260508201012 72 13 2.6 13.0 0.00 0.00 0.01 72 1011.9
20260508200514 72 161 9.6 9.6 0.00 0.00 0.01 72 1012.2
20260508200012 72 177 2.6 12.2 0.00 0.00 0.01 72 1012.1
20260508195513 73 192 5.2 12.2 0.00 0.00 0.01 71 1012.1
20260508195013 73 182 4.3 8.7 0.00 0.00 0.01 71 1012.2
20260508194512 73 229 6.1 8.7 0.00 0.00 0.01 70 1012.0
20260508194011 73 209 7.0 10.4 0.00 0.00 0.01 71 1012.1
20260508193512 73 141 6.1 10.4 0.00 0.00 0.01 71 1011.9
20260508193013 73 171 4.3 8.7 0.00 0.00 0.01 71 1012.0
20260508192514 74 200 7.8 8.7 0.00 0.00 0.01 71 1011.9
20260508192014 74 185 3.5 7.8 0.00 0.00 0.01 71 1012.1
20260508191512 74 191 7.8 7.8 0.00 0.00 0.01 71 1012.1
20260508191014 73 134 6.1 11.3 0.00 0.00 0.01 71 1012.1
20260508190513 73 217 6.1 11.3 0.00 0.00 0.01 71 1012.2
20260508190013 73 183 11.3 11.3 0.00 0.00 0.01 71 1012.2
20260508185512 74 138 4.3 9.6 0.00 0.00 0.01 70 1012.2
20260508185014 74 195 4.3 9.6 0.00 0.00 0.01 70 1012.1
20260508184512 74 138 3.5 10.4 0.00 0.00 0.01 70 1012.2
20260508184010 74 178 3.5 10.4 0.00 0.00 0.01 69 1012.3
20260508183512 74 217 6.1 8.7 0.00 0.00 0.01 69 1012.4
20260508183014 74 197 3.5 8.7 0.00 0.00 0.01 69 1012.4
20260508182516 74 173 2.6 8.7 0.00 0.00 0.01 69 1012.4
20260508182012 73 228 7.8 9.6 0.00 0.00 0.01 69 1012.5
20260508181510 73 167 4.3 9.6 0.00 0.00 0.01 70 1012.6
20260508181014 73 159 4.3 7.8 0.00 0.00 0.01 69 1012.5
20260508180513 73 247 4.3 7.8 0.00 0.00 0.01 68 1012.7
20260508180011 73 219 7.0 7.8 0.00 0.00 0.01 69 1012.9
20260508175512 73 177 5.2 12.2 0.00 0.00 0.01 70 1013.0
20260508175012 73 157 4.3 12.2 0.00 0.00 0.01 69 1013.1
20260508174511 73 167 5.2 11.3 0.00 0.00 0.01 70 1013.1